Location: Hiram
(41.3130°N, 81.1440°W)
Time: 14:25:57
(UTC-05:00)

Amateur Radio Satellites - All Passes

Search period start: 27 November 2014 13:55
Search period end: 28 November 2014 13:55
Location: Hiram, 41.3130°N, 81.1440°W

Satellite Date Start Highest point End Downlink Frequencies (MHz)
Time Altitude Azimuth
TISAT 1 27 Nov 13:59:08 14:01:24 14° 296° (WNW) 14:03:39 437.305
Gurwin Techsat 1B 27 Nov 14:00:29 14:05:43 63° 73° (ENE) 14:10:58 435.225
SWISSCUBE 27 Nov 14:01:04 14:05:54 90° 281° (WNW) 14:10:40 437.505
Oscar 19 27 Nov 14:03:03 14:07:24 28° 265° (W) 14:11:47 437.125/150
DANDE 27 Nov 14:05:50 14:07:16 13° 287° (WNW) 14:08:40 436.750
SPROUT 27 Nov 14:14:35 14:16:06 12° 298° (WNW) 14:17:37 437.525
YUBILEINY 27 Nov 14:17:59 14:26:39 73° 266° (W) 14:35:16 435.215
AO-7 27 Nov 14:21:17 14:28:18 32° 57° (ENE) 14:35:20 29.400- 29.500
O/OREOS (USA 219) 27 Nov 14:24:04 14:26:27 14° 52° (NE) 14:28:49 437.305
BEESAT 27 Nov 14:31:58 14:36:35 48° 289° (WNW) 14:41:10 436.000
KKS-1 27 Nov 14:32:51 14:36:59 37° 98° (E) 14:41:05 437.445
HORYU 2 27 Nov 14:48:47 14:53:12 83° 76° (ENE) 14:57:40 437.375
ITAMSAT 1 27 Nov 15:00:11 15:04:09 22° 266° (W) 15:08:09 435.822/435.867
PHONESAT 2.4 27 Nov 15:08:51 15:12:26 49° 163° (SSE) 15:16:03 2401.200-2431.200
MaSat-1 27 Nov 15:09:40 15:12:36 70° 296° (WNW) 15:15:17 437.345
VERMONT LUNAR 27 Nov 15:13:20 15:16:54 61° 167° (SSE) 15:20:29 437.305
AUBIESAT-1 27 Nov 15:23:56 15:27:08 18° 303° (WNW) 15:30:17 437.475
STARS 27 Nov 15:25:02 15:29:27 86° 285° (WNW) 15:33:50 437.465
ITUPSAT 1 27 Nov 15:30:13 15:32:53 15° 299° (WNW) 15:35:33 437.325
M-CUBED/EXP-1 PRIME 27 Nov 15:30:48 15:33:26 15° 304° (NW) 15:36:03 437.505
RS-15 27 Nov 15:38:46 15:49:18 55° 112° (ESE) 15:59:46 29.354- 29.394
JAS-2 27 Nov 15:39:46 15:46:23 32° 62° (ENE) 15:53:04 435.910
SWISSCUBE 27 Nov 15:41:50 15:43:00 11° 301° (WNW) 15:44:09 437.505
Gurwin Techsat 1B 27 Nov 15:42:52 15:46:06 16° 269° (W) 15:49:21 435.225
O/OREOS (USA 219) 27 Nov 16:01:53 16:06:19 66° 251° (WSW) 16:10:45 437.305
KKS-1 27 Nov 16:10:04 16:13:23 21° 294° (WNW) 16:16:41 437.445
AO-7 27 Nov 16:12:24 16:20:34 62° 256° (WSW) 16:28:49 29.400- 29.500
Cubesat XI-IV 27 Nov 16:14:56 16:16:55 12° 58° (ENE) 16:18:54 437.490
YUBILEINY 27 Nov 16:18:22 16:21:46 13° 286° (WNW) 16:25:11 435.215
PHONESAT 2.4 27 Nov 16:47:25 16:51:08 81° 180° (S) 16:54:51 2401.200-2431.200
VERMONT LUNAR 27 Nov 16:51:41 16:55:19 78° 184° (S) 16:58:56 437.305
CUTE-I 27 Nov 16:53:01 16:57:22 26° 65° (ENE) 17:01:43 437.470
JAS-2 27 Nov 17:23:23 17:30:54 59° 261° (W) 17:38:40 435.910
MOZHAYETS 4 27 Nov 17:25:37 17:30:18 76° 102° (ESE) 17:34:57
Cubesat XI-IV 27 Nov 17:50:48 17:56:10 85° 75° (ENE) 18:01:34 437.490
RS-15 27 Nov 17:51:26 18:01:50 47° 316° (NW) 18:12:21 29.354- 29.394
PRISM 27 Nov 18:00:27 18:04:12 30° 97° (E) 18:07:55 437.425
GONETS M04 27 Nov 18:12:25 18:19:43 28° 67° (ENE) 18:26:54
PCSat 27 Nov 18:23:07 18:26:46 19° 105° (ESE) 18:30:25 145.827
PHONESAT 2.4 27 Nov 18:26:13 18:29:50 50° 197° (SSW) 18:33:26 2401.200-2431.200
VERMONT LUNAR 27 Nov 18:30:14 18:33:37 38° 201° (SSW) 18:37:00 437.305
CUTE-I 27 Nov 18:32:09 18:37:12 42° 261° (W) 18:42:16 437.470
BEESAT 3 27 Nov 18:41:28 18:42:02 10° 107° (ESE) 18:42:36 437.485
HO-68 27 Nov 18:41:43 18:46:13 18° 54° (NE) 18:50:42 435.675
STRAND 1 27 Nov 18:47:42 18:52:25 37° 98° (E) 18:57:05 437.568
BEESAT 2 27 Nov 18:56:37 18:58:51 14° 109° (ESE) 19:01:07 435.950
MOZHAYETS 4 27 Nov 19:05:05 19:06:53 12° 299° (WNW) 19:08:41
AIST 1 27 Nov 19:09:45 19:13:38 31° 90° (E) 19:17:33
CUBESAT XI-V 27 Nov 19:12:05 19:16:46 73° 102° (ESE) 19:21:22 437.345
CANX-2 27 Nov 19:20:20 19:22:34 14° 64° (ENE) 19:24:48 2200.000
Cubesat XI-IV 27 Nov 19:35:04 19:36:54 12° 271° (W) 19:38:44 437.490
PRISM 27 Nov 19:36:14 19:39:36 23° 293° (WNW) 19:42:56 437.425
BRITE-PL 27 Nov 19:37:22 19:41:07 23° 68° (ENE) 19:44:40 437.365/2234.400
AIST 2 27 Nov 19:38:16 19:41:22 20° 111° (ESE) 19:44:31 435.215
DOVE 4 27 Nov 19:48:10 19:50:38 15° 65° (ENE) 19:53:02 437.250
CUTE 1.7 + AOD 2 27 Nov 19:53:06 19:56:43 29° 69° (ENE) 20:00:22 437.475
PCSat 27 Nov 20:04:18 20:09:39 61° 302° (WNW) 20:15:02 145.827
PHONESAT 2.4 27 Nov 20:05:50 20:08:08 16° 212° (SSW) 20:10:25 2401.200-2431.200
GONETS M04 27 Nov 20:08:30 20:17:13 66° 268° (W) 20:25:50
RS-15 27 Nov 20:10:02 20:17:56 22° 348° (NNW) 20:25:59 29.354- 29.394
CINEMA 3 27 Nov 20:10:21 20:12:44 15° 65° (ENE) 20:15:05 145.822/145.860
VERMONT LUNAR 27 Nov 20:11:11 20:11:28 10° 216° (SW) 20:11:45 437.305
BEESAT 3 27 Nov 20:15:32 20:19:37 73° 304° (WNW) 20:23:48 437.485
SEEDS 27 Nov 20:23:11 20:27:15 53° 74° (ENE) 20:31:22 437.485
HO-68 27 Nov 20:25:43 20:32:55 87° 73° (ENE) 20:40:09 435.675
UKube-1 27 Nov 20:26:55 20:30:15 22° 66° (ENE) 20:33:36 .
STRAND 1 27 Nov 20:27:12 20:31:26 27° 294° (WNW) 20:35:38 437.568
BEESAT 2 27 Nov 20:32:39 20:36:41 54° 306° (NW) 20:40:48 435.950
DELFI C3 27 Nov 20:32:55 20:36:02 22° 68° (ENE) 20:39:10 145.870
FUNcube-1 27 Nov 20:34:55 20:36:31 12° 63° (ENE) 20:38:06 145.935
AAUSAT CUBESAT 2 27 Nov 20:36:11 20:40:14 56° 74° (ENE) 20:44:20 437.432
Oscar 11 27 Nov 20:36:18 20:40:01 29° 69° (ENE) 20:43:45 145.826/435.025
GOMX 1 27 Nov 20:36:21 20:41:01 63° 75° (ENE) 20:45:25 467.674
AIST 1 27 Nov 20:47:54 20:51:20 22° 287° (WNW) 20:54:47
CUBESAT XI-V 27 Nov 20:51:35 20:53:35 13° 299° (WNW) 20:55:34 437.345
COMPASS 1 27 Nov 20:52:44 20:56:53 82° 258° (WSW) 21:01:06 437.405
CANX-2 27 Nov 20:53:57 20:58:03 52° 260° (W) 21:02:12 2200.000
DX 1 27 Nov 21:03:18 21:07:34 54° 73° (ENE) 21:11:51 434.975-435.025
UWE-3 27 Nov 21:03:34 21:07:12 29° 70° (ENE) 21:10:47 435.000/436.395/437.385
HUMSAT D 27 Nov 21:04:25 21:06:51 15° 65° (ENE) 21:09:17 437.325/437.525
CUBEBUG 2 27 Nov 21:07:05 21:10:58 36° 71° (ENE) 21:14:48 437.445
BRITE-PL 27 Nov 21:14:50 21:19:28 38° 262° (W) 21:23:47 437.365/2234.400
AIST 2 27 Nov 21:15:43 21:19:43 41° 308° (NW) 21:23:48 435.215
DOVE 4 27 Nov 21:23:33 21:28:02 54° 260° (W) 21:32:18 437.250
CUTE 1.7 + AOD 2 27 Nov 21:29:14 21:32:38 24° 265° (W) 21:36:04 437.475
ZACube-1 27 Nov 21:33:46 21:37:51 53° 74° (ENE) 21:41:55 437.345
VELOX 1 27 Nov 21:41:41 21:45:55 43° 71° (ENE) 21:50:09 145.980
CINEMA 3 27 Nov 21:45:20 21:49:35 50° 260° (W) 21:53:43 145.822/145.860
ESTCUBE 1 27 Nov 21:48:17 21:51:38 21° 65° (ENE) 21:55:00 437.505/2401.250
PCSat 27 Nov 21:52:05 21:54:13 12° 323° (NW) 21:56:22 145.827
ISS 27 Nov 21:53:53 21:55:40 14° 130° (SE) 21:57:27 145.825
BEESAT 3 27 Nov 21:57:31 21:58:37 11° 323° (NW) 21:59:44 437.485
SEEDS 27 Nov 22:01:37 22:03:26 13° 270° (W) 22:05:15 437.485
UKube-1 27 Nov 22:02:15 22:06:13 34° 262° (W) 22:10:12 .
DELFI C3 27 Nov 22:07:36 22:11:10 30° 264° (W) 22:14:47 145.870
FUNcube-1 27 Nov 22:08:14 22:12:22 61° 259° (W) 22:16:30 145.935
AISAT 27 Nov 22:08:54 22:13:23 88° 76° (ENE) 22:17:53 437.250
GONETS M04 27 Nov 22:09:54 22:12:09 11° 288° (WNW) 22:14:24
Oscar 11 27 Nov 22:12:40 22:16:10 24° 265° (W) 22:19:42 145.826/435.025
50 SAT 27 Nov 22:13:37 22:17:38 77° 76° (ENE) 22:21:39 437.505
AAUSAT CUBESAT 2 27 Nov 22:14:45 22:16:17 12° 270° (W) 22:17:50 437.432
CUBEBUG 1 27 Nov 22:14:54 22:18:56 35° 70° (ENE) 22:22:59 437.445
HO-68 27 Nov 22:17:09 22:21:26 17° 270° (W) 22:25:45 435.675
GOMX 1 27 Nov 22:17:32 22:19:28 12° 269° (W) 22:21:21 467.674
TIGRISAT 27 Nov 22:24:59 22:28:44 26° 96° (E) 22:32:31 435.000
CUSAT 1 27 Nov 22:26:17 22:28:54 14° 72° (ENE) 22:31:51 437.405
RS-15 27 Nov 22:26:40 22:35:37 27° 25° (NNE) 22:44:47 29.354- 29.394
POPSAT HIP 1 27 Nov 22:29:31 22:32:32 19° 94° (E) 22:35:32 437.405
HUMSAT D 27 Nov 22:38:22 22:42:19 44° 261° (W) 22:46:16 437.325/437.525
UNISAT 6 27 Nov 22:39:27 22:43:38 38° 98° (E) 22:47:52 437.425
UWE-3 27 Nov 22:40:24 22:43:45 23° 265° (W) 22:47:05 435.000/436.395/437.385
DX 1 27 Nov 22:41:57 22:44:08 14° 268° (W) 22:46:19 434.975-435.025
CUBEBUG 2 27 Nov 22:44:52 22:47:48 18° 267° (W) 22:50:43 437.445
DANDE 27 Nov 22:59:47 23:03:36 23° 76° (ENE) 23:08:19 436.750
POLYITAN 1 27 Nov 23:03:30 23:07:35 46° 99° (E) 23:11:39 437.675
QB50P2 27 Nov 23:04:41 23:08:48 47° 100° (E) 23:12:52 145.880/145.840
ANTELSAT 27 Nov 23:08:15 23:12:44 79° 102° (ESE) 23:17:19 437.575/2403.000
DUCHIFAT 1 27 Nov 23:09:22 23:13:30 53° 100° (E) 23:17:36 145.980
M-CUBED/EXP-1 PRIME 27 Nov 23:12:11 23:13:53 12° 54° (NE) 23:15:37 437.505
ZACube-1 27 Nov 23:12:49 23:14:34 12° 269° (W) 23:16:18 437.345
TISAT 1 27 Nov 23:14:40 23:18:38 39° 71° (ENE) 23:22:37 437.305
VELOX 1 27 Nov 23:19:43 23:22:42 18° 267° (W) 23:25:42 145.980
ESTCUBE 1 27 Nov 23:23:58 23:28:14 40° 262° (W) 23:32:32 437.505/2401.250
ISS 27 Nov 23:28:40 23:31:56 67° 327° (NNW) 23:35:13 145.825
NANOSAT C BR1 27 Nov 23:29:05 23:33:19 90° 284° (WNW) 23:37:32 145.865
SPROUT 27 Nov 23:30:35 23:34:47 52° 73° (ENE) 23:38:58 437.525
SWISSCUBE 27 Nov 23:33:21 23:35:20 13° 60° (ENE) 23:37:20 437.505
QB50P1 27 Nov 23:39:18 23:43:31 69° 285° (WNW) 23:47:42 145.935-145.965
BUGSAT 1 27 Nov 23:39:21 23:43:27 83° 285° (WNW) 23:47:29 437.445
CUBEBUG 1 27 Nov 23:52:00 23:55:24 21° 266° (W) 23:58:47 437.445
TIGRISAT 28 Nov 00:01:36 00:05:27 30° 291° (WNW) 00:09:22 435.000
BEESAT 28 Nov 00:02:02 00:05:40 22° 65° (ENE) 00:09:19 436.000
POPSAT HIP 1 28 Nov 00:04:41 00:08:33 36° 289° (WNW) 00:12:23 437.405
CUSAT 1 28 Nov 00:07:12 00:12:05 76° 262° (W) 00:18:41 437.405
UNISAT 6 28 Nov 00:16:50 00:20:12 21° 293° (WNW) 00:23:36 437.425
Oscar 19 28 Nov 00:37:01 00:38:48 12° 89° (E) 00:40:35 437.125/150
AUBIESAT-1 28 Nov 00:37:18 00:41:25 81° 70° (ENE) 00:45:57 437.475
RS-15 28 Nov 00:39:18 00:50:31 69° 53° (NE) 01:02:11 29.354- 29.394
POLYITAN 1 28 Nov 00:40:36 00:43:10 16° 295° (WNW) 00:45:44 437.675
QB50P2 28 Nov 00:41:50 00:44:20 16° 296° (WNW) 00:46:49 145.880/145.840
DANDE 28 Nov 00:42:30 00:47:02 42° 263° (W) 00:53:00 436.750
M-CUBED/EXP-1 PRIME 28 Nov 00:44:05 00:48:10 78° 253° (WSW) 00:52:42 437.505
DUCHIFAT 1 28 Nov 00:46:44 00:48:56 14° 296° (WNW) 00:51:08 145.980
ANTELSAT 28 Nov 00:47:38 00:48:56 11° 299° (WNW) 00:50:15 437.575/2403.000
MaSat-1 28 Nov 00:47:48 00:49:55 30° 248° (WSW) 00:52:06 437.345
TISAT 1 28 Nov 00:51:46 00:54:38 18° 267° (W) 00:57:31 437.305
ITUPSAT 1 28 Nov 00:57:37 01:02:24 75° 74° (ENE) 01:07:14 437.325
ISS 28 Nov 01:06:44 01:09:04 18° 345° (NNW) 01:11:24 145.825
SWISSCUBE 28 Nov 01:07:43 01:12:32 79° 257° (WSW) 01:17:22 437.505
SPROUT 28 Nov 01:08:57 01:11:10 14° 269° (W) 01:13:23 437.525
YUBILEINY 28 Nov 01:23:58 01:30:58 28° 82° (E) 01:37:55 435.215
KKS-1 28 Nov 01:31:21 01:35:23 35° 70° (ENE) 01:39:25 437.445
ITAMSAT 1 28 Nov 01:33:39 01:36:45 16° 91° (E) 01:39:51 435.822/435.867
BEESAT 28 Nov 01:38:43 01:43:14 41° 261° (W) 01:47:48 436.000
Oscar 19 28 Nov 02:13:33 02:18:44 81° 285° (WNW) 02:23:54 437.125/150
Gurwin Techsat 1B 28 Nov 02:17:17 02:21:37 25° 94° (E) 02:25:54 435.225
STARS 28 Nov 02:22:11 02:26:35 84° 76° (ENE) 02:31:00 437.465
ITUPSAT 1 28 Nov 02:39:16 02:40:49 11° 271° (W) 02:42:23 437.325
HORYU 2 28 Nov 02:41:39 02:44:28 16° 92° (E) 02:47:17 437.375
ISS 28 Nov 02:44:49 02:46:41 14° 6° (N) 02:48:33 145.825
RS-15 28 Nov 02:52:26 03:02:09 35° 254° (WSW) 03:12:15 29.354- 29.394
BEESAT 3 28 Nov 02:59:42 03:00:41 11° 37° (NE) 03:01:40 437.485
KKS-1 28 Nov 03:08:40 03:12:06 22° 266° (W) 03:15:32 437.445
PCSat 28 Nov 03:09:46 03:13:35 19° 43° (NE) 03:17:23 145.827
ITAMSAT 1 28 Nov 03:11:33 03:16:39 61° 288° (WNW) 03:21:44 435.822/435.867
BEESAT 2 28 Nov 03:16:05 03:18:11 13° 40° (NE) 03:20:17 435.950
YUBILEINY 28 Nov 03:18:20 03:27:03 64° 281° (W) 03:35:46 435.215
SO-50 28 Nov 03:29:47 03:34:16 78° 121° (ESE) 03:38:56 436.795
Oscar 19 28 Nov 03:55:58 03:57:13 11° 302° (WNW) 03:58:27 437.125/150
Gurwin Techsat 1B 28 Nov 03:56:44 04:01:42 41° 291° (WNW) 04:06:38 435.225
AIST 2 28 Nov 03:59:51 04:02:48 18° 43° (NE) 04:05:42 435.215
AO-7 28 Nov 04:13:51 04:21:51 47° 101° (E) 04:29:47 29.400- 29.500
HORYU 2 28 Nov 04:17:04 04:21:24 48° 288° (WNW) 04:25:43 437.375
ISS 28 Nov 04:21:07 04:24:06 31° 26° (NNE) 04:27:05 145.825
MOZHAYETS 4 28 Nov 04:27:34 04:32:08 71° 75° (ENE) 04:36:46
JAS-2 28 Nov 04:35:16 04:40:31 23° 89° (E) 04:45:18 435.910
BEESAT 3 28 Nov 04:35:31 04:39:43 70° 56° (NE) 04:43:50 437.485
O/OREOS (USA 219) 28 Nov 04:37:19 04:39:33 14° 99° (E) 04:41:46 437.305
PRISM 28 Nov 04:51:47 04:55:10 24° 67° (ENE) 04:58:35 437.425
PCSat 28 Nov 04:52:11 04:57:37 77° 243° (WSW) 05:03:00 145.827
BEESAT 2 28 Nov 04:52:51 04:57:05 86° 239° (WSW) 05:01:14 435.950
SO-50 28 Nov 05:12:28 05:15:25 17° 321° (NW) 05:18:26 436.795
YUBILEINY 28 Nov 05:22:28 05:25:51 13° 304° (NW) 05:29:15 435.215
AIST 2 28 Nov 05:37:34 05:41:49 61° 241° (WSW) 05:46:00 435.215
ISS 28 Nov 05:57:43 06:00:46 36° 223° (SW) 06:03:49 145.825
STRAND 1 28 Nov 06:03:29 06:08:29 54° 72° (ENE) 06:13:30 437.568
AO-7 28 Nov 06:06:51 06:14:29 42° 299° (WNW) 06:22:07 29.400- 29.500
MOZHAYETS 4 28 Nov 06:08:30 06:09:52 11° 271° (W) 06:11:13
Cubesat XI-IV 28 Nov 06:08:31 06:13:19 33° 97° (E) 06:18:05 437.490
O/OREOS (USA 219) 28 Nov 06:14:02 06:18:26 56° 295° (WNW) 06:22:50 437.305
CUBESAT XI-V 28 Nov 06:15:23 06:20:05 71° 75° (ENE) 06:24:48 437.345
BEESAT 3 28 Nov 06:16:10 06:17:20 11° 253° (WSW) 06:18:29 437.485
JAS-2 28 Nov 06:19:16 06:26:09 60° 290° (WNW) 06:32:12 435.910
PRISM 28 Nov 06:26:55 06:30:35 29° 263° (W) 06:34:18 437.425
CUTE-I 28 Nov 06:48:54 06:54:14 78° 103° (ESE) 06:59:32 437.470
AIST 1 28 Nov 06:54:04 06:58:28 87° 264° (W) 07:02:48
GONETS M04 28 Nov 07:14:03 07:21:23 31° 83° (E) 07:28:45
STRAND 1 28 Nov 07:44:31 07:47:59 18° 268° (W) 07:51:28 437.568
Cubesat XI-IV 28 Nov 07:48:41 07:53:20 31° 293° (WNW) 07:57:57 437.490
HO-68 28 Nov 07:55:37 07:59:36 15° 89° (E) 08:03:34 435.675
CUBESAT XI-V 28 Nov 07:56:17 07:58:00 12° 271° (W) 07:59:43 437.345
JAS-2 28 Nov 08:07:46 08:09:32 11° 311° (NW) 08:11:15 435.910
CUTE-I 28 Nov 08:30:47 08:33:38 15° 301° (WNW) 08:36:28 437.470
COMPASS 1 28 Nov 08:37:59 08:40:43 17° 92° (E) 08:43:26 437.405
GOMX 1 28 Nov 08:39:13 08:41:47 16° 93° (E) 08:44:24 467.674
CANX-2 28 Nov 08:39:53 08:43:31 26° 95° (E) 08:47:07 2200.000
GONETS M04 28 Nov 09:09:01 09:17:38 58° 283° (WNW) 09:26:22
CUTE 1.7 + AOD 2 28 Nov 09:13:45 09:18:00 57° 100° (E) 09:22:14 437.475
BRITE-PL 28 Nov 09:19:10 09:23:17 62° 101° (E) 09:27:29 437.365/2234.400
DOVE 4 28 Nov 09:22:36 09:26:29 35° 98° (E) 09:30:29 437.250
POPSAT HIP 1 28 Nov 09:23:34 09:26:09 16° 65° (ENE) 09:28:43 437.405
TIGRISAT 28 Nov 09:24:43 09:28:03 23° 67° (ENE) 09:31:22 435.000
ZACube-1 28 Nov 09:25:46 09:26:03 10° 90° (E) 09:26:20 437.345
UNISAT 6 28 Nov 09:39:14 09:43:02 33° 70° (ENE) 09:46:52 437.425
CINEMA 3 28 Nov 09:40:09 09:44:02 34° 98° (E) 09:48:01 145.822/145.860
HO-68 28 Nov 09:40:58 09:48:12 90° 105° (ESE) 09:55:21 435.675
SEEDS 28 Nov 09:43:35 09:47:52 76° 284° (WNW) 09:52:08 437.485
DELFI C3 28 Nov 09:48:05 09:51:56 36° 98° (E) 09:55:46 145.870
UKube-1 28 Nov 09:49:56 09:53:59 37° 98° (E) 09:58:00 .
AAUSAT CUBESAT 2 28 Nov 09:55:20 09:59:35 75° 284° (WNW) 10:03:48 437.432
POLYITAN 1 28 Nov 09:57:10 10:01:03 36° 71° (ENE) 10:04:56 437.675
50 SAT 28 Nov 09:57:10 09:58:08 11° 90° (E) 09:59:06 437.505
FUNcube-1 28 Nov 09:57:15 10:00:44 24° 95° (E) 10:04:15 145.935
QB50P2 28 Nov 09:58:07 10:02:02 37° 71° (ENE) 10:05:56 145.880/145.840
Oscar 11 28 Nov 09:59:07 10:03:26 59° 101° (E) 10:07:43 145.826/435.025
AISAT 28 Nov 10:01:28 10:04:19 17° 93° (E) 10:07:10 437.250
DUCHIFAT 1 28 Nov 10:02:23 10:06:22 40° 71° (ENE) 10:10:20 145.980
ANTELSAT 28 Nov 10:07:48 10:12:02 69° 75° (ENE) 10:16:17 437.575/2403.000
COMPASS 1 28 Nov 10:12:37 10:16:38 42° 288° (WNW) 10:20:38 437.405
CANX-2 28 Nov 10:15:45 10:19:24 27° 291° (WNW) 10:23:02 2200.000
GOMX 1 28 Nov 10:16:12 10:20:07 41° 288° (WNW) 10:24:09 467.674
NANOSAT C BR1 28 Nov 10:21:57 10:26:11 68° 75° (ENE) 10:30:24 145.865
SO-50 28 Nov 10:22:17 10:24:40 13° 36° (NE) 10:27:04 436.795
HUMSAT D 28 Nov 10:23:11 10:26:47 28° 96° (E) 10:30:25 437.325/437.525
DX 1 28 Nov 10:27:53 10:32:14 79° 285° (WNW) 10:36:33 434.975-435.025
UWE-3 28 Nov 10:29:12 10:33:27 65° 101° (E) 10:37:47 435.000/436.395/437.385
BUGSAT 1 28 Nov 10:29:27 10:33:40 69° 75° (ENE) 10:37:52 437.445
QB50P1 28 Nov 10:32:11 10:36:27 89° 82° (E) 10:40:43 145.935-145.965
CUBEBUG 2 28 Nov 10:34:17 10:38:34 87° 103° (ESE) 10:42:57 437.445
CUTE 1.7 + AOD 2 28 Nov 10:51:19 10:53:27 14° 296° (WNW) 10:55:35 437.475
POPSAT HIP 1 28 Nov 10:57:35 11:01:41 46° 261° (W) 11:05:47 437.405
ZACube-1 28 Nov 10:58:37 11:02:51 69° 285° (WNW) 11:07:09 437.345
BRITE-PL 28 Nov 11:00:02 11:01:20 11° 297° (WNW) 11:02:38 437.365/2234.400
TIGRISAT 28 Nov 11:00:54 11:04:39 30° 263° (W) 11:08:26 435.000
DOVE 4 28 Nov 11:01:03 11:04:04 19° 293° (WNW) 11:07:08 437.250
VELOX 1 28 Nov 11:08:53 11:13:20 90° 103° (ESE) 11:17:44 145.980
GONETS M04 28 Nov 11:14:32 11:16:44 11° 306° (NW) 11:18:57
UNISAT 6 28 Nov 11:16:41 11:19:54 21° 266° (W) 11:23:09 437.425
ESTCUBE 1 28 Nov 11:16:45 11:21:04 41° 98° (E) 11:25:20 437.505/2401.250
CINEMA 3 28 Nov 11:17:53 11:21:04 21° 292° (WNW) 11:24:20 145.822/145.860
DELFI C3 28 Nov 11:24:05 11:26:59 19° 294° (WNW) 11:29:52 145.870
UKube-1 28 Nov 11:26:44 11:29:53 20° 295° (WNW) 11:33:02 .
50 SAT 28 Nov 11:29:47 11:33:48 59° 286° (WNW) 11:37:49 437.505
HO-68 28 Nov 11:30:18 11:34:57 19° 306° (NW) 11:39:35 435.675
FUNcube-1 28 Nov 11:33:24 11:37:04 29° 290° (WNW) 11:40:49 145.935
POLYITAN 1 28 Nov 11:34:04 11:37:07 19° 266° (W) 11:40:10 437.675
YUBILEINY 28 Nov 11:34:51 11:38:21 13° 56° (NE) 11:41:49 435.215
QB50P2 28 Nov 11:35:04 11:38:04 19° 267° (W) 11:41:05 145.880/145.840
Oscar 11 28 Nov 11:36:57 11:39:06 14° 297° (WNW) 11:41:16 145.826/435.025
AISAT 28 Nov 11:36:58 11:41:11 44° 289° (WNW) 11:45:21 437.250
DUCHIFAT 1 28 Nov 11:39:36 11:42:24 17° 267° (W) 11:45:12 145.980
CUBEBUG 1 28 Nov 11:39:59 11:44:21 72° 102° (ESE) 11:48:40 437.445
Oscar 19 28 Nov 11:53:17 11:56:45 19° 63° (ENE) 12:00:14 437.125/150
HUMSAT D 28 Nov 11:59:06 12:02:30 25° 292° (WNW) 12:05:55 437.325/437.525
SO-50 28 Nov 12:01:13 12:06:06 71° 56° (NE) 12:10:59 436.795
UWE-3 28 Nov 12:07:52 12:09:30 12° 297° (WNW) 12:11:08 435.000/436.395/437.385
DANDE 28 Nov 12:18:25 12:19:39 13° 92° (E) 12:20:53 436.750
M-CUBED/EXP-1 PRIME 28 Nov 12:30:39 12:31:13 10° 92° (E) 12:31:46 437.505
TISAT 1 28 Nov 12:35:18 12:39:31 74° 102° (ESE) 12:43:42 437.305
ITAMSAT 1 28 Nov 12:51:19 12:55:33 26° 65° (ENE) 12:59:48 435.822/435.867
SPROUT 28 Nov 12:53:23 12:57:41 78° 284° (WNW) 13:01:56 437.525
ESTCUBE 1 28 Nov 12:54:23 12:57:38 20° 295° (WNW) 13:00:53 437.505/2401.250
VERMONT LUNAR 28 Nov 12:58:56 13:01:28 18° 150° (SSE) 13:04:00 437.305
ITUPSAT 1 28 Nov 12:59:25 13:02:52 19° 93° (E) 13:06:18 437.325
PHONESAT 2.4 28 Nov 12:59:25 13:01:21 14° 147° (SSE) 13:03:17 2401.200-2431.200
SWISSCUBE 28 Nov 13:08:51 13:12:53 27° 95° (E) 13:16:54 437.505
CUBEBUG 1 28 Nov 13:18:43 13:20:07 11° 299° (WNW) 13:21:31 437.445
CUSAT 1 28 Nov 13:22:32 13:24:57 32° 283° (WNW) 13:27:23 437.405
AO-7 28 Nov 13:25:29 13:29:35 15° 46° (NE) 13:33:42 29.400- 29.500
YUBILEINY 28 Nov 13:28:27 13:37:07 66° 79° (E) 13:45:43 435.215
Oscar 19 28 Nov 13:30:38 13:35:38 56° 259° (W) 13:40:41 437.125/150
Gurwin Techsat 1B 28 Nov 13:38:15 13:43:09 40° 69° (ENE) 13:48:04 435.225
BEESAT 28 Nov 13:38:53 13:43:33 50° 100° (E) 13:48:10 436.000
HORYU 2 28 Nov 13:40:58 13:43:40 16° 63° (ENE) 13:46:23 437.375
SO-50 28 Nov 13:43:27 13:46:05 15° 252° (WSW) 13:48:43 436.795
